EW7347 Weather Reports


time (UTC)temp
C
wind
direction
speed
KPH
gust
KPH
rain 1hr
cm
rain 24hr
cm
rain mn
cm
humidity
%
barometer
mb
20260505200036 11 306 0.0 9.7 0.00 0.00 0.00 71 1012.5
20260505195528 11 259 0.0 9.7 0.00 0.00 0.00 71 1012.4
20260505195032 11 312 0.0 9.7 0.00 0.00 0.00 72 1012.3
20260505194537 12 219 0.0 6.4 0.00 0.00 0.00 73 1012.2
20260505193404 12 296 0.0 1.6 0.00 0.00 0.00 72 1012.0
20260505192236 12 96 0.0 0.0 0.00 0.00 0.00 69 1011.9
20260505191109 13 44 0.0 1.6 0.00 0.00 0.00 61 1011.7
20260505190603 13 90 0.0 3.2 0.00 0.00 0.00 60 1011.6
20260505190105 13 295 0.0 0.0 0.00 0.00 0.00 60 1011.6
20260505185549 13 278 0.0 0.0 0.00 0.00 0.00 60 1011.6
20260505185051 13 82 0.0 6.4 0.00 0.00 0.00 60 1011.5
20260505184536 13 277 0.0 0.0 0.00 0.00 0.00 59 1011.4
20260505184020 13 281 0.0 0.0 0.00 0.00 0.00 60 1011.3
20260505183525 13 259 0.0 0.0 0.00 0.00 0.00 60 1011.4
20260505183023 13 331 0.0 0.0 0.00 0.00 0.00 60 1011.3
20260505182524 13 34 0.0 0.0 0.00 0.00 0.00 58 1011.4
20260505182026 13 269 0.0 0.0 0.00 0.00 0.00 57 1011.3
20260505180845 14 11 0.0 0.0 0.00 0.00 0.00 56 1011.4
20260505180355 14 319 0.0 4.8 0.00 0.00 0.00 56 1011.3
20260505175857 14 297 0.0 6.4 0.00 0.00 0.00 57 1011.3
20260505175351 14 267 0.0 1.6 0.00 0.00 0.00 57 1011.3
20260505174842 14 288 0.0 3.2 0.00 0.00 0.00 58 1011.4
20260505174331 14 308 0.0 0.0 0.00 0.00 0.00 57 1011.4
20260505173840 14 74 0.0 0.0 0.00 0.00 0.00 57 1011.4
20260505173322 14 303 0.0 0.0 0.00 0.00 0.00 56 1011.4
20260505172809 14 46 0.0 1.6 0.00 0.00 0.00 56 1011.4
20260505172256 14 280 0.0 4.8 0.00 0.00 0.00 56 1011.5
20260505171740 14 35 0.0 0.0 0.00 0.00 0.00 58 1011.5
20260505171221 15 315 0.0 0.0 0.00 0.00 0.00 56 1011.6
20260505170707 15 231 0.0 1.6 0.00 0.00 0.00 56 1011.6
20260505170151 15 33 0.0 3.2 0.00 0.00 0.00 54 1011.6
20260505165024 15 293 0.0 9.7 0.00 0.00 0.00 54 1011.5
20260505164511 16 346 0.0 0.0 0.00 0.00 0.00 53 1011.4
20260505164010 16 251 0.0 8.0 0.00 0.00 0.00 52 1011.4
20260505163502 16 286 0.0 1.6 0.00 0.00 0.00 53 1011.4
20260505163002 16 304 0.0 0.0 0.00 0.00 0.00 55 1011.3
20260505162452 16 42 0.0 9.7 0.00 0.00 0.00 55 1011.3
20260505161935 15 311 0.0 0.0 0.00 0.00 0.00 55 1011.3
20260505161443 15 329 0.0 6.4 0.00 0.00 0.00 56 1011.4
20260505160930 15 294 0.0 6.4 0.00 0.00 0.00 57 1011.4
20260505160437 15 5 0.0 12.9 0.00 0.00 0.00 57 1011.4
20260505152856 15 54 0.0 11.3 0.00 0.00 0.00 57 1011.5
20260505152404 15 11 0.0 0.0 0.00 0.00 0.00 57 1011.6
20260505151848 15 307 0.0 0.0 0.00 0.00 0.00 58 1011.5
20260505151333 15 45 0.0 0.0 0.00 0.00 0.00 57 1011.6
20260505150227 15 321 0.0 0.0 0.00 0.00 0.00 58 1011.7
20260505140650 15 342 0.0 1.6 0.00 0.00 0.00 59 1011.9
20260505140142 15 288 0.0 0.0 0.00 0.00 0.00 60 1011.9
20260505124944 15 269 0.0 4.8 0.00 0.00 0.00 58 1011.8
20260505124440 15 342 0.0 1.6 0.00 0.00 0.00 58 1011.8
20260505123928 15 247 0.0 9.7 0.00 0.00 0.00 59 1011.8
20260505123412 15 355 0.0 0.0 0.00 0.00 0.00 59 1011.8
20260505122855 15 313 0.0 0.0 0.00 0.00 0.00 60 1011.8
20260505122405 16 302 0.0 4.8 0.00 0.00 0.00 58 1011.8
20260505121904 16 277 0.0 4.8 0.00 0.00 0.00 58 1011.8
20260505121359 16 281 0.0 6.4 0.00 0.00 0.00 58 1011.8
20260505120856 16 298 0.0 0.0 0.00 0.00 0.00 59 1011.8
20260505120401 15 208 0.0 4.8 0.00 0.00 0.00 59 1011.9
20260505113949 15 24 0.0 0.0 0.00 0.00 0.00 59 1011.9
20260505112805 15 309 0.0 0.0 0.00 0.00 0.00 58 1012.0
20260505112254 15 271 0.0 0.0 0.00 0.00 0.00 57 1012.0
20260505111743 16 11 0.0 0.0 0.00 0.00 0.00 58 1012.0
20260505111233 16 87 0.0 11.3 0.00 0.00 0.00 57 1012.0
20260505110727 15 29 0.0 0.0 0.00 0.00 0.00 59 1012.0
20260505102111 15 306 0.0 8.0 0.00 0.00 0.00 62 1012.2
20260505101616 15 215 0.0 1.6 0.00 0.00 0.00 63 1012.4
20260505101117 15 306 0.0 8.0 0.00 0.00 0.00 62 1012.3
20260505100612 15 336 0.0 4.8 0.00 0.00 0.00 63 1012.3
20260505100055 15 269 0.0 11.3 0.00 0.00 0.00 64 1012.4
20260505095542 15 305 0.0 8.0 0.00 0.00 0.00 64 1012.3
20260505095045 14 305 0.0 4.8 0.00 0.00 0.00 67 1012.4
20260505094529 13 46 0.0 1.6 0.00 0.00 0.00 67 1012.4
20260505094032 13 306 0.0 11.3 0.00 0.00 0.00 67 1012.4
20260505093518 13 71 0.0 11.3 0.00 0.00 0.00 69 1012.5
20260505093023 13 188 0.0 9.7 0.00 0.00 0.00 68 1012.5
20260505092521 13 296 0.0 9.7 0.00 0.00 0.00 69 1012.6
20260505092001 13 346 0.0 1.6 0.00 0.00 0.00 70 1012.6
20260505091444 12 5 0.0 4.8 0.00 0.00 0.00 69 1012.7
20260505090946 12 290 0.0 1.6 0.00 0.00 0.00 70 1012.7
20260505090454 12 342 0.0 0.0 0.00 0.00 0.00 70 1012.7
20260505085940 12 299 0.0 11.3 0.00 0.00 0.00 71 1012.7
20260505085442 12 321 0.0 0.0 0.00 0.00 0.00 71 1012.7
20260505084932 12 298 0.0 0.0 0.00 0.00 0.00 71 1012.8
20260505084419 12 257 0.0 0.0 0.00 0.00 0.00 72 1012.8
20260505083905 12 273 0.0 0.0 0.00 0.00 0.00 72 1012.8
20260505083405 12 126 0.0 0.0 0.00 0.00 0.00 72 1012.8
20260505082914 12 24 0.0 0.0 0.00 0.00 0.00 71 1012.8
20260505082356 13 295 0.0 0.0 0.00 0.00 0.00 69 1012.8
20260505081901 13 9 0.0 0.0 0.00 0.00 0.00 71 1012.9
20260505080741 13 268 0.0 0.0 0.00 0.00 0.00 72 1013.0
20260505080240 13 325 0.0 0.0 0.00 0.00 0.00 72 1012.8
20260505075722 12 302 0.0 1.6 0.00 0.00 0.00 73 1012.7
20260505075206 12 267 0.0 0.0 0.00 0.00 0.00 77 1012.8
20260505074712 12 5 0.0 4.8 0.00 0.00 0.00 74 1012.8
20260505074203 12 265 0.0 1.6 0.00 0.00 0.00 77 1012.8
20260505073045 11 334 0.0 8.0 0.00 0.00 0.00 80 1012.9
20260505072555 11 243 0.0 6.4 0.00 0.00 0.00 81 1013.0
20260505072100 10 273 0.0 6.4 0.00 0.00 0.00 83 1013.0
20260505070938 9 272 0.0 0.0 0.00 0.00 0.00 84 1013.0
20260505070423 9 304 0.0 3.2 0.00 0.00 0.00 84 1013.0
20260505065910 9 255 0.0 1.6 0.00 0.00 0.00 86 1013.0
20260505065405 9 333 0.0 0.0 0.00 0.00 0.00 87 1013.0
20260505064851 8 267 0.0 0.0 0.00 0.00 0.00 88 1013.1
20260505064342 8 321 0.0 0.0 0.00 0.00 0.00 88 1013.2
20260505063824 8 324 0.0 0.0 0.00 0.00 0.00 88 1013.2
20260505062709 8 323 0.0 3.2 0.00 0.00 0.00 89 1013.2
20260505062209 8 266 0.0 0.0 0.00 0.00 0.00 89 1013.3
20260505061653 7 342 0.0 0.0 0.00 0.00 0.00 90 1013.3
20260505060538 7 342 0.0 0.0 0.00 0.00 0.00 90 1013.3
20260505060025 7 344 0.0 0.0 0.00 0.00 0.00 90 1013.3
20260505055526 7 340 0.0 0.0 0.00 0.00 0.00 91 1013.3
20260505054340 7 284 0.0 0.0 0.00 0.00 0.00 91 1013.2
20260505053838 7 284 0.0 0.0 0.00 0.00 0.00 91 1013.3
20260505053326 6 284 0.0 0.0 0.00 0.00 0.00 91 1013.3
20260505052809 6 284 0.0 0.0 0.00 0.00 0.00 91 1013.2
20260505051702 6 284 0.0 0.0 0.00 0.00 0.00 90 1013.0
20260505051147 6 284 0.0 0.0 0.00 0.00 0.00 90 1013.0
20260505050648 6 284 0.0 0.0 0.00 0.00 0.00 90 1013.0
20260505050131 6 284 0.0 0.0 0.00 0.00 0.00 90 1012.9
20260505041644 7 267 0.0 0.0 0.00 0.00 0.00 90 1012.9
20260505041151 7 265 0.0 0.0 0.00 0.00 0.00 91 1012.8
20260505040655 7 264 0.0 0.0 0.00 0.00 0.00 91 1012.8
20260505040202 7 301 0.0 0.0 0.00 0.00 0.00 91 1012.8
20260505035700 7 302 0.0 0.0 0.00 0.00 0.00 91 1012.7
20260505035202 7 57 0.0 0.0 0.00 0.00 0.00 91 1012.7
20260505034704 7 57 0.0 0.0 0.00 0.00 0.00 91 1012.7
20260505033529 7 57 0.0 0.0 0.00 0.00 0.00 91 1012.7
20260505032359 8 57 0.0 0.0 0.00 0.00 0.00 91 1013.0
20260505031842 8 57 0.0 0.0 0.00 0.00 0.00 91 1012.9
20260505030726 8 57 0.0 0.0 0.00 0.00 0.00 90 1012.9
20260505030224 8 57 0.0 0.0 0.00 0.00 0.00 90 1012.9
20260505025706 8 57 0.0 0.0 0.00 0.00 0.00 89 1013.0
20260505025151 8 57 0.0 0.0 0.00 0.00 0.00 89 1012.9
20260505024634 8 57 0.0 0.0 0.00 0.00 0.00 89 1012.9
20260505024131 8 57 0.0 0.0 0.00 0.00 0.00 89 1013.0
20260505022939 9 57 0.0 0.0 0.00 0.00 0.00 90 1013.0
20260505022449 9 57 0.0 0.0 0.00 0.00 0.00 90 1012.9
20260505021304 9 57 0.0 0.0 0.00 0.00 0.00 91 1012.9
20260505020807 9 57 0.0 0.0 0.00 0.00 0.00 91 1012.9
20260505020251 9 57 0.0 0.0 0.00 0.00 0.00 92 1012.9
20260505015734 9 57 0.0 0.0 0.00 0.00 0.00 92 1012.9
20260505015239 9 57 0.0 0.0 0.00 0.00 0.00 92 1013.0
20260505014725 9 57 0.0 0.0 0.00 0.00 0.00 92 1013.1
20260505014225 9 57 0.0 0.0 0.00 0.00 0.00 92 1013.2
20260505013713 9 57 0.0 0.0 0.00 0.00 0.00 92 1013.3
20260505013219 9 57 0.0 0.0 0.00 0.00 0.00 93 1013.4
20260505012719 8 57 0.0 0.0 0.00 0.00 0.00 92 1013.4
20260505012202 8 57 0.0 0.0 0.00 0.00 0.00 92 1013.4
20260505011700 8 57 0.0 0.0 0.00 0.00 0.00 92 1013.4
20260505011155 8 57 0.0 0.0 0.00 0.00 0.00 93 1013.4
20260505010649 8 57 0.0 0.0 0.00 0.00 0.00 93 1013.4
20260505010137 8 57 0.0 0.0 0.00 0.00 0.00 93 1013.5
20260505005646 8 57 0.0 0.0 0.00 0.00 0.00 93 1013.5
20260505005135 8 57 0.0 0.0 0.00 0.00 0.00 92 1013.6
20260505004627 8 57 0.0 0.0 0.00 0.00 0.00 92 1013.7
20260505002826 8 57 0.0 0.0 0.00 0.00 0.00 92 1013.7
20260505002320 8 57 0.0 0.0 0.00 0.00 0.00 92 1013.7
20260505001809 8 57 0.0 0.0 0.00 0.00 0.00 91 1013.8
20260505001311 8 57 0.0 0.0 0.00 0.00 0.00 90 1013.9
20260505000802 8 57 0.0 0.0 0.00 0.00 0.00 90 1013.9
20260504235625 8 57 0.0 0.0 0.00 0.00 0.00 90 1013.9
20260504234503 8 57 0.0 0.0 0.00 0.00 0.00 91 1014.0
20260504233957 8 57 0.0 0.0 0.00 0.00 0.00 91 1014.0
20260504233507 8 57 0.0 0.0 0.00 0.00 0.00 91 1014.0
20260504232951 8 57 0.0 0.0 0.00 0.00 0.00 91 1014.0
20260504232443 8 57 0.0 0.0 0.00 0.00 0.00 92 1014.1
20260504231951 8 57 0.0 0.0 0.00 0.00 0.00 92 1014.1
20260504231447 8 57 0.0 0.0 0.00 0.00 0.00 92 1014.1
20260504230947 8 57 0.0 0.0 0.00 0.00 0.00 92 1014.1
20260504230437 8 57 0.0 0.0 0.00 0.00 0.00 91 1014.1
20260504225943 8 57 0.0 0.0 0.00 0.00 0.00 90 1014.2
20260504225424 8 57 0.0 0.0 0.00 0.00 0.00 89 1014.1
20260504224913 8 57 0.0 0.0 0.00 0.00 0.00 89 1014.1
20260504224412 8 57 0.0 0.0 0.00 0.00 0.00 88 1014.1
20260504223900 8 57 0.0 0.0 0.00 0.00 0.00 88 1014.0
20260504222731 9 57 0.0 0.0 0.00 0.00 0.00 87 1014.0
20260504222220 9 57 0.0 0.0 0.00 0.00 0.00 87 1014.0
20260504221703 9 57 0.0 0.0 0.00 0.00 0.00 87 1014.0
20260504215918 10 57 0.0 0.0 0.00 0.00 0.00 86 1014.2
20260504215408 10 57 0.0 0.0 0.00 0.00 0.00 86 1014.2
20260504214251 10 57 0.0 0.0 0.00 0.00 0.00 87 1014.2
20260504213753 10 57 0.0 0.0 0.00 0.00 0.00 87 1014.2
20260504213259 10 57 0.0 0.0 0.00 0.00 0.00 87 1014.3
20260504212110 10 57 0.0 0.0 0.00 0.00 0.00 86 1014.3
20260504211602 10 57 0.0 0.0 0.00 0.00 0.00 86 1014.4
20260504211054 10 57 0.0 0.0 0.00 0.00 0.00 86 1014.3
20260504210545 10 57 0.0 0.0 0.00 0.00 0.00 86 1014.3
20260504210027 10 57 0.0 0.0 0.00 0.00 0.00 86 1014.4
20260504205507 10 57 0.0 0.0 0.00 0.00 0.00 85 1014.3
20260504205009 10 57 0.0 0.0 0.00 0.00 0.00 85 1014.3
20260504204518 10 57 0.0 0.0 0.00 0.00 0.00 84 1014.4
20260504204024 10 57 0.0 0.0 0.00 0.00 0.00 83 1014.4
20260504203522 11 57 0.0 0.0 0.00 0.00 0.00 83 1014.4
20260504203014 11 57 0.0 0.0 0.00 0.00 0.00 82 1014.4
20260504202517 11 57 0.0 0.0 0.00 0.00 0.00 82 1014.3
20260504201957 11 57 0.0 0.0 0.00 0.00 0.00 82 1014.3
20260504200816 11 57 0.0 0.0 0.00 0.00 0.00 82 1014.2
20260504200318 11 0 0.0 0.0 0.00 0.00 0.00 82 1014.3